Terminal Aerodrome Forecast
Issued by NWS Pittsburgh, PA

Current Version | Previous Version | Graphics & Text | Print | Product List | Glossary On
Versions: 1 2 3 4 5 6 7 8 9 10 11 12 13 14 15 16 17 18 19 20 21 22 23 24 25 26 27 28 29 30 31 32 33
000
FTUS41 KPBZ 302100 AAA
TAFPIT
TAF AMD
KPIT 302100Z 3021/3124 33012G24KT 3SM -SHSN OVC025
     FM302300 31008KT P6SM BKN018
     FM310800 28005KT P6SM SCT015
     FM311700 24006KT P6SM SCT040=

USA.gov is the U.S. government's official web portal to all federal, state and local government web resources and services.